LVLRG KCTB-CYQL

Flight info

Callsign LVLRG
Flight time 0h 55m
Altitude 10000
Route YQL
Aircraft B350/L-SDF/C

Departure

Time 2026-04-24 23:00
Airport Cut Bank International Airport (KCTB)

Arrival

Time 2026-04-24 23:56
Airport Lethbridge County Airport (CYQL)
Time Latitude Longitude Altitude Speed Heading
2026-04-24 22:38 48.60704 -112.36613 3850 ft 0 kts 194°
2026-04-24 22:54 48.60694 -112.36617 3846 ft 8 kts 194°
2026-04-24 22:54 48.60671 -112.36557 3849 ft 9 kts 107°
2026-04-24 22:55 48.60662 -112.36547 3849 ft 2 kts 242°
2026-04-24 22:55 48.60679 -112.36601 3848 ft 5 kts 308°
2026-04-24 22:55 48.60687 -112.36616 3847 ft 0 kts 309°
2026-04-24 22:55 48.60715 -112.36708 3850 ft 16 kts 270°
2026-04-24 22:56 48.60712 -112.36853 3851 ft 11 kts 258°
2026-04-24 22:56 48.60652 -112.36911 3851 ft 11 kts 196°
2026-04-24 22:56 48.60586 -112.36941 3849 ft 9 kts 198°
2026-04-24 22:56 48.60531 -112.36969 3848 ft 7 kts 199°
2026-04-24 22:57 48.60486 -112.36993 3850 ft 6 kts 200°
2026-04-24 22:57 48.60443 -112.37017 3848 ft 7 kts 200°
2026-04-24 22:57 48.60391 -112.37046 3846 ft 10 kts 198°
2026-04-24 22:57 48.60303 -112.37091 3846 ft 16 kts 199°
2026-04-24 22:58 48.60189 -112.37145 3845 ft 17 kts 200°
2026-04-24 22:58 48.60105 -112.37203 3849 ft 4 kts 257°
2026-04-24 22:58 48.60107 -112.37214 3849 ft 0 kts 298°
2026-04-24 22:59 48.60118 -112.37232 3849 ft 4 kts 326°
2026-04-24 22:59 48.60125 -112.37238 3849 ft 0 kts 333°
2026-04-24 22:59 48.60126 -112.37238 3849 ft 5 kts 333°
2026-04-24 23:00 48.60386 -112.37448 3849 ft 75 kts 332°
2026-04-24 23:00 48.60968 -112.37874 4063 ft 103 kts 334°
2026-04-24 23:00 48.61629 -112.38327 4702 ft 107 kts 334°
2026-04-24 23:00 48.62385 -112.38848 5167 ft 126 kts 333°
2026-04-24 23:01 48.63189 -112.39449 5661 ft 132 kts 330°
2026-04-24 23:01 48.64015 -112.40137 6145 ft 140 kts 329°
2026-04-24 23:01 48.64925 -112.40722 6649 ft 145 kts 342°
2026-04-24 23:01 48.65939 -112.40888 7180 ft 151 kts 355°
2026-04-24 23:02 48.67004 -112.40671 7735 ft 155 kts
2026-04-24 23:02 48.68093 -112.40400 8113 ft 165 kts
2026-04-24 23:02 48.69248 -112.40095 8632 ft 166 kts
2026-04-24 23:02 48.70377 -112.39766 9190 ft 166 kts
2026-04-24 23:03 48.71496 -112.39503 9701 ft 164 kts 354°
2026-04-24 23:03 48.72619 -112.39606 10223 ft 157 kts 345°
2026-04-24 23:03 48.73649 -112.39844 10901 ft 147 kts 342°
2026-04-24 23:03 48.74646 -112.40245 11352 ft 149 kts 338°
2026-04-24 23:04 48.75633 -112.40724 11836 ft 152 kts 337°
2026-04-24 23:04 48.76685 -112.41253 12054 ft 168 kts 338°
2026-04-24 23:04 48.77851 -112.41831 12108 ft 186 kts 338°
2026-04-24 23:04 48.79138 -112.42465 12085 ft 202 kts 339°
2026-04-24 23:05 48.80526 -112.43086 12085 ft 213 kts 340°
2026-04-24 23:05 48.81983 -112.43722 12088 ft 221 kts 341°
2026-04-24 23:05 48.83505 -112.44290 11983 ft 231 kts 343°
2026-04-24 23:05 48.85092 -112.44787 12031 ft 233 kts 345°
2026-04-24 23:06 48.86700 -112.45230 12009 ft 237 kts 346°
2026-04-24 23:06 48.88329 -112.45655 11982 ft 239 kts 346°
2026-04-24 23:06 48.89972 -112.46089 11998 ft 239 kts 346°
2026-04-24 23:06 48.91607 -112.46510 11994 ft 241 kts 347°
2026-04-24 23:07 48.93269 -112.46908 12038 ft 240 kts 347°
2026-04-24 23:07 48.94362 -112.47154 12049 ft 240 kts 348°
2026-04-24 23:07 48.96535 -112.47878 12067 ft 238 kts 343°
2026-04-24 23:07 48.97603 -112.48268 12103 ft 238 kts 343°
2026-04-24 23:08 48.99746 -112.49059 12194 ft 237 kts 343°
2026-04-24 23:08 49.00817 -112.49419 12223 ft 237 kts 345°
2026-04-24 23:08 49.02433 -112.49924 12239 ft 238 kts 345°
2026-04-24 23:08 49.04085 -112.50426 12274 ft 238 kts 345°
2026-04-24 23:09 49.05757 -112.51106 12169 ft 241 kts 339°
2026-04-24 23:09 49.07261 -112.51864 12173 ft 240 kts 339°
2026-04-24 23:09 49.08849 -112.52638 12192 ft 240 kts 341°
2026-04-24 23:09 49.10452 -112.53344 12196 ft 239 kts 341°
2026-04-24 23:10 49.12052 -112.54064 12189 ft 240 kts 341°
2026-04-24 23:10 49.13647 -112.54825 12182 ft 240 kts 340°
2026-04-24 23:10 49.15231 -112.55628 12179 ft 240 kts 340°
2026-04-24 23:10 49.16832 -112.56368 12162 ft 241 kts 340°
2026-04-24 23:11 49.18421 -112.57155 12166 ft 240 kts 339°
2026-04-24 23:11 49.20009 -112.57922 12148 ft 240 kts 341°
2026-04-24 23:11 49.21675 -112.58693 12122 ft 241 kts 340°
2026-04-24 23:11 49.23190 -112.59437 12136 ft 240 kts 339°
2026-04-24 23:12 49.24776 -112.60256 12132 ft 240 kts 339°
2026-04-24 23:12 49.26375 -112.60990 12044 ft 243 kts 342°
2026-04-24 23:12 49.28003 -112.61655 12113 ft 240 kts 342°
2026-04-24 23:12 49.29617 -112.62313 12103 ft 241 kts 343°
2026-04-24 23:13 49.31247 -112.62913 12104 ft 241 kts 344°
2026-04-24 23:13 49.32874 -112.63475 12144 ft 240 kts 345°
2026-04-24 23:13 49.34520 -112.63996 12085 ft 242 kts 345°
2026-04-24 23:13 49.36157 -112.64512 12089 ft 237 kts 345°
2026-04-24 23:14 49.37769 -112.65031 11898 ft 238 kts 345°
2026-04-24 23:14 49.39406 -112.65563 11549 ft 243 kts 345°
2026-04-24 23:14 49.41066 -112.66101 11328 ft 243 kts 345°
2026-04-24 23:14 49.42733 -112.66640 10919 ft 248 kts 345°
2026-04-24 23:15 49.44429 -112.67189 10498 ft 250 kts 344°
2026-04-24 23:15 49.46134 -112.67724 10121 ft 250 kts 345°
2026-04-24 23:15 49.47843 -112.68241 9723 ft 250 kts 345°
2026-04-24 23:15 49.49548 -112.68738 9245 ft 250 kts 346°
2026-04-24 23:16 49.51259 -112.69217 8785 ft 249 kts 346°
2026-04-24 23:16 49.52952 -112.69686 8326 ft 247 kts 347°
2026-04-24 23:16 49.54673 -112.70142 7890 ft 244 kts 347°
2026-04-24 23:16 49.56287 -112.70591 7572 ft 238 kts 346°
2026-04-24 23:17 49.57925 -112.70844 7347 ft 234 kts 356°
2026-04-24 23:17 49.59543 -112.70464 6978 ft 241 kts 14°
2026-04-24 23:17 49.61016 -112.69171 6587 ft 251 kts 32°
2026-04-24 23:17 49.62315 -112.67335 6238 ft 252 kts 37°
2026-04-24 23:18 49.63421 -112.65307 6050 ft 253 kts 53°
2026-04-24 23:18 49.63898 -112.62620 5734 ft 269 kts 84°
2026-04-24 23:18 49.63523 -112.59724 5360 ft 279 kts 102°
2026-04-24 23:18 49.63167 -112.56919 5290 ft 262 kts 87°
2026-04-24 23:19 49.63117 -112.54131 5083 ft 259 kts 85°
2026-04-24 23:19 49.63052 -112.51352 4891 ft 259 kts 86°
2026-04-24 23:19 49.62946 -112.48596 4731 ft 256 kts 86°
2026-04-24 23:19 49.63118 -112.45998 4770 ft 233 kts 63°
2026-04-24 23:20 49.63844 -112.43842 4656 ft 225 kts 51°
2026-04-24 23:20 49.64659 -112.41833 4678 ft 218 kts 49°
2026-04-24 23:20 49.65448 -112.39854 4696 ft 214 kts 48°
2026-04-24 23:20 49.66274 -112.37949 4643 ft 213 kts 46°
2026-04-24 23:21 49.67110 -112.36072 4612 ft 212 kts 46°
2026-04-24 23:21 49.67842 -112.34066 4633 ft 221 kts 64°
2026-04-24 23:21 49.67872 -112.31639 4610 ft 239 kts 101°
2026-04-24 23:21 49.66905 -112.29555 4706 ft 246 kts 143°
2026-04-24 23:22 49.65303 -112.28783 4705 ft 243 kts 187°
2026-04-24 23:22 49.63768 -112.29542 4737 ft 226 kts 226°
2026-04-24 23:22 49.63000 -112.31430 4680 ft 201 kts 272°
2026-04-24 23:22 49.62953 -112.33526 4737 ft 191 kts 277°
2026-04-24 23:23 49.62914 -112.35542 4739 ft 185 kts 277°
2026-04-24 23:23 49.62973 -112.37459 4766 ft 174 kts 282°
2026-04-24 23:23 49.63047 -112.39303 4694 ft 173 kts 283°
2026-04-24 23:23 49.63163 -112.41161 4678 ft 175 kts 285°
2026-04-24 23:24 49.63370 -112.42993 4713 ft 172 kts 291°
2026-04-24 23:24 49.63628 -112.44784 4702 ft 171 kts 290°
2026-04-24 23:24 49.63794 -112.46577 4633 ft 166 kts 284°
2026-04-24 23:24 49.63860 -112.48315 4590 ft 159 kts 283°
2026-04-24 23:25 49.63890 -112.49925 4555 ft 149 kts 277°
2026-04-24 23:25 49.63745 -112.51454 4703 ft 135 kts 272°
2026-04-24 23:25 49.63579 -112.52824 4756 ft 128 kts 272°
2026-04-24 23:25 49.63426 -112.54173 4723 ft 127 kts 276°
2026-04-24 23:26 49.63335 -112.55516 4621 ft 126 kts 277°
2026-04-24 23:26 49.63264 -112.56871 4483 ft 127 kts 279°
2026-04-24 23:26 49.63261 -112.58229 4315 ft 128 kts 281°
2026-04-24 23:26 49.63226 -112.59616 4121 ft 130 kts 280°
2026-04-24 23:27 49.63219 -112.61010 3901 ft 130 kts 281°
2026-04-24 23:27 49.63225 -112.62400 3658 ft 131 kts 280°
2026-04-24 23:27 49.63271 -112.63789 3420 ft 128 kts 287°
2026-04-24 23:27 49.63280 -112.65151 3368 ft 124 kts 277°
2026-04-24 23:28 49.63356 -112.66446 3308 ft 121 kts 285°
2026-04-24 23:28 49.63481 -112.67746 3539 ft 122 kts 286°
2026-04-24 23:28 49.63630 -112.69161 3918 ft 144 kts 288°
2026-04-24 23:28 49.63548 -112.70776 4359 ft 163 kts 269°
2026-04-24 23:29 49.63323 -112.72545 4791 ft 169 kts 268°
2026-04-24 23:29 49.63061 -112.74416 4940 ft 188 kts 267°
2026-04-24 23:29 49.62482 -112.76372 4965 ft 221 kts 234°
2026-04-24 23:29 49.61042 -112.77532 4955 ft 252 kts 192°
2026-04-24 23:30 49.59292 -112.77113 4999 ft 264 kts 153°
2026-04-24 23:30 49.57938 -112.75186 5046 ft 262 kts 115°
2026-04-24 23:30 49.57450 -112.72609 5081 ft 252 kts 84°
2026-04-24 23:30 49.57810 -112.70070 5113 ft 239 kts 56°
2026-04-24 23:31 49.58810 -112.68124 5130 ft 229 kts 32°
2026-04-24 23:31 49.60176 -112.66976 5129 ft 221 kts 12°
2026-04-24 23:31 49.61686 -112.66633 5131 ft 218 kts
2026-04-24 23:31 49.63201 -112.66432 5149 ft 220 kts
2026-04-24 23:32 49.64620 -112.65554 5072 ft 236 kts 34°
2026-04-24 23:32 49.65445 -112.63259 4995 ft 257 kts 71°
2026-04-24 23:32 49.65494 -112.60466 5040 ft 267 kts 93°
2026-04-24 23:32 49.65203 -112.57643 5058 ft 266 kts 90°
2026-04-24 23:33 49.64994 -112.54792 5021 ft 268 kts 90°
2026-04-24 23:33 49.64811 -112.51937 5020 ft 267 kts 88°
2026-04-24 23:33 49.64680 -112.49083 5014 ft 266 kts 87°
2026-04-24 23:33 49.64329 -112.46278 5077 ft 273 kts 111°
2026-04-24 23:34 49.63043 -112.44094 5110 ft 281 kts 148°
2026-04-24 23:34 49.61217 -112.43125 5107 ft 280 kts 177°
2026-04-24 23:34 49.59339 -112.43570 5093 ft 270 kts 211°
2026-04-24 23:34 49.57970 -112.45360 5090 ft 252 kts 245°
2026-04-24 23:35 49.57469 -112.47801 5127 ft 233 kts 276°
2026-04-24 23:35 49.57769 -112.50207 4993 ft 229 kts 296°
2026-04-24 23:35 49.58438 -112.52409 4931 ft 227 kts 302°
2026-04-24 23:35 49.59185 -112.54525 5046 ft 221 kts 302°
2026-04-24 23:36 49.59894 -112.56628 5036 ft 222 kts 303°
2026-04-24 23:36 49.60635 -112.58731 4991 ft 224 kts 303°
2026-04-24 23:36 49.61394 -112.60835 4951 ft 224 kts 305°
2026-04-24 23:36 49.62217 -112.62880 4859 ft 225 kts 305°
2026-04-24 23:37 49.63002 -112.64978 4752 ft 227 kts 303°
2026-04-24 23:37 49.63576 -112.67263 4673 ft 235 kts 281°
2026-04-24 23:37 49.61811 -112.71495 4849 ft 262 kts 210°
2026-04-24 23:38 49.60023 -112.72044 4988 ft 267 kts 180°
2026-04-24 23:38 49.58249 -112.71350 5021 ft 270 kts 152°
2026-04-24 23:38 49.56867 -112.69474 5036 ft 265 kts 117°
2026-04-24 23:38 49.56038 -112.66949 5040 ft 265 kts 111°
2026-04-24 23:39 49.55236 -112.64392 5035 ft 266 kts 110°
2026-04-24 23:39 49.54468 -112.61777 5007 ft 269 kts 110°
2026-04-24 23:39 49.53621 -112.59222 5062 ft 267 kts 112°
2026-04-24 23:39 49.52800 -112.56656 5085 ft 267 kts 111°
2026-04-24 23:40 49.52019 -112.54072 5120 ft 262 kts 99°
2026-04-24 23:40 49.52145 -112.51458 5116 ft 239 kts 54°
2026-04-24 23:40 49.53289 -112.49881 5173 ft 217 kts 15°
2026-04-24 23:40 49.54728 -112.49296 5208 ft 212 kts
2026-04-24 23:41 49.56199 -112.49079 5095 ft 215 kts 356°
2026-04-24 23:41 49.57699 -112.49279 4953 ft 216 kts 344°
2026-04-24 23:41 49.58911 -112.50559 4947 ft 216 kts 314°
2026-04-24 23:41 49.59876 -112.52311 4980 ft 214 kts 313°
2026-04-24 23:42 49.60769 -112.54150 4978 ft 216 kts 305°
2026-04-24 23:42 49.61456 -112.56227 4956 ft 219 kts 298°
2026-04-24 23:42 49.61889 -112.58507 4894 ft 225 kts 287°
2026-04-24 23:42 49.62138 -112.60894 4908 ft 225 kts 285°
2026-04-24 23:43 49.62480 -112.63230 4908 ft 220 kts 296°
2026-04-24 23:43 49.63087 -112.65349 4902 ft 219 kts 298°
2026-04-24 23:43 49.63429 -112.67663 4916 ft 228 kts 276°
2026-04-24 23:43 49.63095 -112.70115 4927 ft 235 kts 262°
2026-04-24 23:44 49.62735 -112.72541 4991 ft 230 kts 268°
2026-04-24 23:44 49.62507 -112.74973 5040 ft 229 kts 269°
2026-04-24 23:44 49.62249 -112.77404 5073 ft 230 kts 267°
2026-04-24 23:44 49.62044 -112.79851 5041 ft 231 kts 272°
2026-04-24 23:45 49.61893 -112.82321 5041 ft 232 kts 272°
2026-04-24 23:45 49.61735 -112.84781 5074 ft 231 kts 271°
2026-04-24 23:45 49.61523 -112.87244 5075 ft 233 kts 268°
2026-04-24 23:45 49.61242 -112.89712 5052 ft 238 kts 263°
2026-04-24 23:46 49.60681 -112.92150 5018 ft 245 kts 252°
2026-04-24 23:46 49.59887 -112.94491 4984 ft 247 kts 249°
2026-04-24 23:46 49.59070 -112.96824 4981 ft 247 kts 249°
2026-04-24 23:46 49.58233 -112.99136 4990 ft 247 kts 248°
2026-04-24 23:47 49.57398 -113.01429 5035 ft 245 kts 247°
2026-04-24 23:47 49.56368 -113.03510 5116 ft 251 kts 230°
2026-04-24 23:47 49.54862 -113.04986 5073 ft 264 kts 206°
2026-04-24 23:47 49.53107 -113.05946 5214 ft 260 kts 204°
2026-04-24 23:48 49.51400 -113.06837 5285 ft 260 kts 204°
2026-04-24 23:48 49.49697 -113.07779 5233 ft 264 kts 205°
2026-04-24 23:48 49.47967 -113.08705 5321 ft 263 kts 203°
2026-04-24 23:48 49.46389 -113.09987 5311 ft 254 kts 229°
2026-04-24 23:49 49.45392 -113.12145 5114 ft 249 kts 255°
2026-04-24 23:49 49.45156 -113.14681 5078 ft 236 kts 282°
2026-04-24 23:49 49.45724 -113.16941 5027 ft 225 kts 314°
2026-04-24 23:49 49.47052 -113.18095 4943 ft 222 kts 349°
2026-04-24 23:50 49.48572 -113.17834 4854 ft 225 kts 18°
2026-04-24 23:50 49.49926 -113.16614 4793 ft 225 kts 25°
2026-04-24 23:50 49.51275 -113.15380 4683 ft 225 kts 25°
2026-04-24 23:50 49.52609 -113.14139 4605 ft 224 kts 26°
2026-04-24 23:51 49.53936 -113.12909 4490 ft 220 kts 26°
2026-04-24 23:51 49.55095 -113.11406 4393 ft 224 kts 47°
2026-04-24 23:51 49.55706 -113.09193 4396 ft 227 kts 66°
2026-04-24 23:51 49.56154 -113.06892 4423 ft 220 kts 65°
2026-04-24 23:52 49.56709 -113.04741 4424 ft 214 kts 60°
2026-04-24 23:52 49.57304 -113.02666 4416 ft 212 kts 58°
2026-04-24 23:52 49.57827 -113.00596 4396 ft 204 kts 61°
2026-04-24 23:52 49.58295 -112.98613 4464 ft 189 kts 61°
2026-04-24 23:53 49.58723 -112.96787 4415 ft 174 kts 60°
2026-04-24 23:53 49.59121 -112.95140 4379 ft 155 kts 57°
2026-04-24 23:53 49.59520 -112.93595 4369 ft 152 kts 58°
2026-04-24 23:53 49.59869 -112.92099 4386 ft 149 kts 58°
2026-04-24 23:54 49.60226 -112.90597 4405 ft 148 kts 58°
2026-04-24 23:54 49.60577 -112.89140 4258 ft 144 kts 57°
2026-04-24 23:54 49.60938 -112.87678 4036 ft 144 kts 55°
2026-04-24 23:54 49.61354 -112.86320 3881 ft 140 kts 58°
2026-04-24 23:55 49.61562 -112.84804 3556 ft 142 kts 66°
2026-04-24 23:55 49.61889 -112.83398 3347 ft 139 kts 57°
2026-04-24 23:55 49.62253 -112.82038 3188 ft 130 kts 60°
2026-04-24 23:55 49.62552 -112.80812 3046 ft 113 kts 59°
2026-04-24 23:56 49.62801 -112.79851 3030 ft 82 kts 73°
2026-04-24 23:56 49.62932 -112.79278 3021 ft 30 kts 69°
2026-04-24 23:56 49.62939 -112.79235 3022 ft 0 kts 118°